CW6440 Branford CT US current weather conditions

sailwx.info

Wind from 166

Air temperature -0.0° C
Dewpoint -5.6° C

Last reported at 2019-Dec-08 15:05 UTC.
Time now 2019-Dec-08 15:19 UTC

Location: N 41°18' W 072°48'.
View on Google Maps.

See reports from other nearby stations

  
Tides and Currents Weather Stations Pressure Air Temp Water Temp Dewpoint Dewpoint Depression Visibility Wind Speed Wind Dir Waves Ship Positions
date/time (UTC)wind fromknots sea level pressurealtimeterstation pressurevisibilityair tempwater tempwave heightnotes
2019-Dec-08 15:05 166 -0.0
2019-Dec-08 15:00 156 -0.6
2019-Dec-08 14:35 245 -1.7
2019-Dec-08 14:30 286 -1.7
2019-Dec-08 14:05 335 -3.9
2019-Dec-08 14:00 335 -4.4
2019-Dec-08 13:35 326 -6.1
2019-Dec-08 13:30 326 -6.7
2019-Dec-08 13:05 315 -7.8
2019-Dec-08 13:00 315 -8.3
2019-Dec-08 12:35 314 -8.3
2019-Dec-08 12:30 314 -8.3
2019-Dec-08 12:05 314 -8.9
2019-Dec-08 12:00 313 -8.9
2019-Dec-08 11:35 313 -8.3
2019-Dec-08 11:30 313 -8.3
2019-Dec-08 11:05 313 -8.9
2019-Dec-08 11:00 313 -8.3
2019-Dec-08 10:35 313 -8.3
2019-Dec-08 10:30 313 -8.3
2019-Dec-08 10:05 313 -8.3
2019-Dec-08 10:00 313 -8.3
2019-Dec-08 09:35 311 -8.3
2019-Dec-08 09:30 311 -8.3
2019-Dec-08 09:05 311 -8.3
2019-Dec-08 09:00 311 -8.3
2019-Dec-08 08:35 311 -7.8
2019-Dec-08 08:30 311 -7.8
2019-Dec-08 08:05 311 -7.2
2019-Dec-08 08:00 311 -7.2
2019-Dec-08 07:35 311 -7.2
2019-Dec-08 07:30 311 -7.2
2019-Dec-08 07:05 311 -6.7
2019-Dec-08 07:00 311 -6.7
2019-Dec-08 06:35 311 -6.1
2019-Dec-08 06:30 311 -6.1
2019-Dec-08 06:05 311 -5.6
2019-Dec-08 06:00 311 -5.6
2019-Dec-08 05:35 311 -5.0
2019-Dec-08 05:30 311 -5.0
2019-Dec-08 05:05 311 -4.4
2019-Dec-08 05:00 311 -4.4
2019-Dec-08 04:35 311 -3.9
2019-Dec-08 04:30 309 1 gusting 2 -3.9
2019-Dec-08 04:05 014 -3.3
2019-Dec-08 04:00 015 0 gusting 4 -3.3
2019-Dec-08 03:35 005 1 gusting 2 -3.3
2019-Dec-08 03:30 358 1 gusting 5 -3.3
2019-Dec-08 03:05 020 0 gusting 6 -2.8
2019-Dec-08 03:00 359 1 gusting 5 -2.8
2019-Dec-08 02:35 005 1 gusting 2 -2.8
2019-Dec-08 02:30 343 0 gusting 4 -2.8
2019-Dec-08 02:05 020 -2.2
2019-Dec-08 02:00 028 -2.2
2019-Dec-08 01:35 032 2 gusting 6 -2.2
2019-Dec-08 01:30 016 1 gusting 5 -2.2
2019-Dec-08 01:05 -2.2
2019-Dec-08 01:00 -2.2
2019-Dec-08 00:35 355 0 gusting 2 -1.7
2019-Dec-08 00:30 355 0 gusting 2 -1.7
2019-Dec-08 00:05 349 1 gusting 4 -1.1
2019-Dec-08 00:00 005 1 gusting 8 -1.1
2019-Dec-07 23:35 327 -2.2
2019-Dec-07 23:30 317 -2.2
2019-Dec-07 23:05 317 -1.1
2019-Dec-07 23:00 317 -1.1
2019-Dec-07 22:35 316 -0.0
2019-Dec-07 22:30 316 -0.0
2019-Dec-07 22:05 317 0.6
2019-Dec-07 22:00 317 0.6
2019-Dec-07 21:35 309 1 gusting 4 1.1
2019-Dec-07 21:30 343 1 gusting 6 1.1
2019-Dec-07 21:05 299 1.7
2019-Dec-07 21:00 326 4 gusting 10 1.7
2019-Dec-07 20:35 340 4 gusting 10 1.7
2019-Dec-07 20:30 320 2 gusting 10 1.7
2019-Dec-07 20:05 319 3 gusting 7 1.7
2019-Dec-07 20:00 318 3 gusting 7 1.7
2019-Dec-07 19:35 328 1 gusting 2 1.7
2019-Dec-07 19:30 323 3 gusting 10 1.7
2019-Dec-07 19:05 334 5 gusting 10 2.2
2019-Dec-07 19:00 312 2 gusting 11 2.2
2019-Dec-07 18:35 344 5 gusting 10 2.2
2019-Dec-07 18:30 354 5 gusting 12 2.2
2019-Dec-07 18:05 024 1 gusting 7 1.7
2019-Dec-07 18:00 330 1 gusting 10 1.7
2019-Dec-07 17:35 354 5 gusting 10 1.7
2019-Dec-07 17:30 333 3 gusting 10 1.7
2019-Dec-07 17:05 006 7 gusting 17 1.7
2019-Dec-07 17:00 353 5 gusting 13 1.7
2019-Dec-07 16:35 018 5 gusting 14 1.7
2019-Dec-07 16:30 044 6 gusting 17 2.2
2019-Dec-07 16:05 035 4 gusting 10 1.7
2019-Dec-07 16:00 013 4 gusting 13 1.7
2019-Dec-07 15:35 319 4 gusting 13 1.7
2019-Dec-07 15:30 003 5 gusting 12 1.7
2019-Dec-07 15:05 344 4 gusting 6 1.1
2019-Dec-07 15:00 005 1 gusting 6 1.1
2019-Dec-07 14:35 334 4 gusting 6 -0.0
2019-Dec-07 14:30 349 2 gusting 6 -0.0
2019-Dec-07 14:05 340 3 gusting 6 -1.1
2019-Dec-07 14:00 008 2 gusting 8 -1.1
2019-Dec-07 13:35 026 3 gusting 6 -1.7
2019-Dec-07 13:30 020 2 gusting 6 -1.7
2019-Dec-07 13:05 350 1 gusting 2 -2.2
2019-Dec-07 13:00 348 1 gusting 4 -2.2
2019-Dec-07 12:35 324 0 gusting 2 -2.2
2019-Dec-07 12:30 316 -2.2
2019-Dec-07 12:05 353 3 gusting 6 -2.2
2019-Dec-07 12:00 312 2 gusting 6 -2.2
2019-Dec-07 11:35 344 1 gusting 2 -1.7
2019-Dec-07 11:30 332 1 gusting 7 -1.7
2019-Dec-07 11:05 344 2 gusting 6 -1.7
2019-Dec-07 11:00 020 2 gusting 7 -1.7
2019-Dec-07 10:35 312 2 gusting 6 -1.7
2019-Dec-07 10:30 327 -1.7
2019-Dec-07 10:05 331 1 gusting 4 -1.1
2019-Dec-07 10:00 339 2 gusting 7 -1.1
2019-Dec-07 09:35 321 2 gusting 6 -1.1
2019-Dec-07 09:30 328 4 gusting 10 -1.1
2019-Dec-07 09:05 352 2 gusting 7 -0.6
2019-Dec-07 09:00 338 4 gusting 12 -0.6
2019-Dec-07 08:35 347 4 gusting 7 -0.6
2019-Dec-07 08:30 357 4 gusting 10 -0.0
2019-Dec-07 08:05 005 3 gusting 7 -0.0
2019-Dec-07 08:00 348 4 gusting 10 -0.0
2019-Dec-07 07:35 334 4 gusting 8 0.6
2019-Dec-07 07:30 024 4 gusting 10 0.6
2019-Dec-07 07:05 338 4 gusting 8 1.1
2019-Dec-07 07:00 318 4 gusting 11 1.1
2019-Dec-07 06:35 001 2 gusting 7 1.1
2019-Dec-07 06:30 339 1 gusting 10 1.1
2019-Dec-07 06:05 348 5 gusting 8 1.7
2019-Dec-07 06:00 347 3 gusting 12 1.7
2019-Dec-07 05:35 331 6 gusting 15 1.7
2019-Dec-07 05:30 357 4 gusting 10 1.7
2019-Dec-07 05:05 343 4 gusting 8 2.2
2019-Dec-07 05:00 021 5 gusting 10 2.2
2019-Dec-07 04:35 2.8
2019-Dec-07 04:30 345 3 gusting 15 2.8
2019-Dec-07 04:05 019 7 gusting 14 2.8
2019-Dec-07 04:00 004 5 gusting 17 3.3
2019-Dec-07 03:35 357 5 gusting 11 3.9
2019-Dec-07 03:30 007 6 gusting 13 3.9
2019-Dec-07 03:05 353 10 gusting 13 4.4
2019-Dec-07 03:00 336 8 gusting 20 5.0
2019-Dec-07 02:35 339 6 gusting 13 6.1
2019-Dec-07 02:30 6.1
2019-Dec-07 02:05 317 4 gusting 13 6.7
2019-Dec-07 02:00 291 1 gusting 10 6.7
2019-Dec-07 01:35 320 4 gusting 12 7.2
2019-Dec-07 01:30 262 3 gusting 10 7.2
2019-Dec-07 01:05 281 6 gusting 10 7.8
2019-Dec-07 01:00 276 2 gusting 19 7.8
2019-Dec-07 00:35 266 6 gusting 11 8.3
2019-Dec-07 00:30 292 6 gusting 14 8.3
2019-Dec-07 00:05 270 4 gusting 8 8.3
2019-Dec-07 00:00 268 4 gusting 12 8.3
2019-Dec-06 23:35 259 1 gusting 5 8.3
2019-Dec-06 23:30 252 3 gusting 8 8.3
2019-Dec-06 23:05 257 2 gusting 6 8.3
2019-Dec-06 23:00 248 2 gusting 13 8.3
2019-Dec-06 22:35 245 3 gusting 8 8.3
2019-Dec-06 22:30 259 5 gusting 11 8.3
2019-Dec-06 22:05 234 4 gusting 12 7.8
2019-Dec-06 22:00 226 6 gusting 15 7.8
2019-Dec-06 21:35 214 3 gusting 10 7.8
2019-Dec-06 21:30 221 6 gusting 12 7.8
2019-Dec-06 21:05 198 1 gusting 6 7.2
2019-Dec-06 21:00 227 4 gusting 7 7.2
2019-Dec-06 20:35 243 3 gusting 7 7.2
2019-Dec-06 20:30 236 4 gusting 11 7.2
2019-Dec-06 20:05 214 4 gusting 8 7.2
2019-Dec-06 20:00 237 4 gusting 10 7.2
2019-Dec-06 19:35 229 3 gusting 6 6.7
2019-Dec-06 19:30 211 4 gusting 10 6.7
2019-Dec-06 19:05 225 4 gusting 13 6.7
2019-Dec-06 19:00 223 4 gusting 10 6.7
2019-Dec-06 18:35 213 3 gusting 7 6.7
2019-Dec-06 18:30 220 4 gusting 10 6.1
2019-Dec-06 18:05 243 3 gusting 7 6.1
2019-Dec-06 18:00 242 2 gusting 10 6.1
2019-Dec-06 17:35 230 2 gusting 6 6.1
2019-Dec-06 17:30 258 2 gusting 10 6.1
2019-Dec-06 17:05 211 1 gusting 8 5.6
2019-Dec-06 17:00 251 5 gusting 11 5.6
2019-Dec-06 16:35 265 5 gusting 10 5.0
2019-Dec-06 16:30 213 6 gusting 12 4.4
2019-Dec-06 16:05 244 5 gusting 8 3.9
2019-Dec-06 16:00 245 4 gusting 11 3.9
2019-Dec-06 15:35 249 5 gusting 10 3.9
2019-Dec-06 15:30 254 6 gusting 13 3.9
2019-Dec-06 15:05 243 5 gusting 11 3.9
2019-Dec-06 15:00 212 6 gusting 10 3.9